Location: Detroit
(42.3310°N, 83.0460°W)
Time: 01:35:40
(UTC-04:00)

A-11 Canister half - Pass Details

Date: 16 February 2023
Orbit: 1526 x 1682 km, 47.3° (Epoch: 20 March)

Event Time Altitude Azimuth Distance (km) Brightness Sun altitude
Rises 05:10:27 0° 269° (W) 4,695 - -25.9°
Reaches altitude 10° 05:13:34 10° 273° (W) 3,703 - -25.4°
Exits shadow 05:18:47 37° 286° (WNW) 2,198 9.3 -24.4°
Maximum altitude 05:22:50 66° 355° (N) 1,646 9.0 -23.6°
Drops below altitude 10° 05:32:08 10° 77° (ENE) 3,716 12.1 -21.9°
Sets 05:35:15 0° 81° (E) 4,712 13.1 -21.4°
